Regional Weather Roundup
Issued by NWS

Home | Current Version | Previous Version | Text Only | Print | Product List | Glossary On
Versions: 1 2 3 4 5 6 7 8 9 10 11 12 13 14 15 16 17 18 19 20 21 22 23 24 25 26 27 28 29 30 31 32 33 34 35 36 37 38 39 40 41 42 43 44 45 46 47 48 49 50
000
ASUS43 KMKX 261521
RWRWI

WISCONSIN REGIONAL WEATHER ROUNDUP
NATIONAL WEATHER SERVICE MILWAUKEE/SULLIVAN WI
1000 AM CDT FRI MAY 26 2017

NOTE: "FAIR" INDICATES FEW OR NO CLOUDS BELOW 12,000 FEET WITH NO
SIGNIFICANT WEATHER AND/OR OBSTRUCTIONS TO VISIBILITY.

WIZ001-002-006>008-014>016-023>028-261600-
NORTHWEST WISCONSIN

CITY           SKY/WX    TMP DP  RH WIND       PRES   REMARKS
SUPERIOR ARPT  NOT AVBL
ASHLAND        CLOUDY    58  53  84 N3        29.76S
HAYWARD        CLOUDY    63  51  65 S9        29.76S
SIREN          CLOUDY    64  53  69 CALM      29.74R
CUMBERLAND     CLOUDY    64  54  68 S12       29.76S
RICE LAKE      CLOUDY    67  54  61 SE10      29.78R
CHETEK         CLOUDY    67  56  65 MISG      29.77R
LADYSMITH      CLOUDY    64  55  70 SE8       29.80R
EAU CLAIRE     CLOUDY    69  54  58 S13       29.77R
MENOMONIE      PTSUNNY   69  55  61 SE10      29.77R
NEW RICHMOND   CLOUDY    63  53  70 S9        29.76R
OSCEOLA        CLOUDY    66  56  69 S13       29.77R
$$

WIZ003>005-009-010-017-018-261600-
NORTH CENTRAL WISCONSIN

CITY           SKY/WX    TMP DP  RH WIND       PRES   REMARKS
MANITOWISH WTR CLOUDY    61  57  88 SE8       29.81R
ARBOR VITAE    CLOUDY    61  55  80 SE5       29.81S
WOODRUFF       CLOUDY    61  55  80 SE5       29.81S
RHINELANDER    CLOUDY    63  56  78 SE5       29.82F
EAGLE RIVER    CLOUDY    61  52  71 SE3       29.82S
LAND O LAKES   CLOUDY    62  53  72 S5        29.83S
PHILLIPS       CLOUDY    63  53  69 S9        29.79S
TOMAHAWK       CLOUDY    60  54  81 SE5       29.81F
MEDFORD        MOSUNNY   64  56  76 S10       29.81R
MERRILL        CLOUDY    62  56  83 SE5       29.82S
$$

WIZ029-030-035-036-043>047-261600-
CENTRAL WISCONSIN

CITY           SKY/WX    TMP DP  RH WIND       PRES   REMARKS
WAUSAU         SUNNY     64  56  75 SE7       29.80F
MOSINEE        MOSUNNY   63  57  82 SE6       29.83S
MARSHFIELD     PTSUNNY   64  56  75 SE10      29.80R
STEVENS POINT  MOSUNNY   62  56  81 SE9       29.83S
WAUPACA        SUNNY     66  57  72 E6        29.84S
WAUTOMA        CLOUDY    65  56  72 SE8       29.83S
WISC RAPIDS    MOSUNNY   67  57  70 SE10      29.82F
CAMP DOUGLAS   PTSUNNY   68  57  68 S8        29.80S
$$

WIZ011>013-019>022-031-037>040-048>050-261600-
NORTHEAST WISCONSIN

CITY           SKY/WX    TMP DP  RH WIND       PRES   REMARKS
ANTIGO         PTSUNNY   62  56  82 SE5       29.83F
SHAWANO        MOSUNNY   66  55  68 SE6       29.84S
OCONTO         CLOUDY    62  53  72 SE3       29.84F
STURGEON BAY   CLOUDY    61  54  77 E6        29.87R
GREEN BAY      SUNNY     63  57  81 E9        29.84F
MANITOWOC      CLOUDY    55  54  94 VRB3      29.87S
APPLETON       PTSUNNY   63  50  63 SE8       29.83S
CLINTONVILLE   MOSUNNY   64  54  68 SE8       29.83F
OSHKOSH        CLOUDY    63  54  72 E8        29.83S
$$

WIZ032>034-041-042-053>061-261600-
SOUTHWEST WISCONSIN

CITY           SKY/WX    TMP DP  RH WIND       PRES   REMARKS
LA CROSSE      MOSUNNY   70  58  65 VRB3      29.77F
SPARTA         CLOUDY    68  57  67 SE7       29.79S
VIROQUA        MOSUNNY   67  55  67 MISG      29.79F
BOSCOBEL       CLOUDY    68  56  65 S3        29.78F
PRAIRIE DU CHI CLOUDY    66  54  65 E6        29.76F
PLATTEVILLE    CLOUDY    64  59  81 SE10      29.79F
$$

WIZ056-057-062-063-064-067-068-261600-
SOUTH CENTRAL WISCONSIN

CITY           SKY/WX    TMP DP  RH WIND       PRES   REMARKS
REEDSBURG      MOSUNNY   68  55  64 SE6       29.80S
BARABOO/DELLS  MOSUNNY   67  55  65 SE6       29.80F
LONE ROCK      CLOUDY    67  58  72 E7        29.79S
MINERAL POINT  CLOUDY    64  59  82 SE7       29.80S
MADISON        PTSUNNY   67  57  70 SE9       29.81S
MIDDLETON      MOSUNNY   67  57  68 SE8       29.82R
WATERTOWN      CLOUDY    66  57  73 SE8       29.83F
MONROE         CLOUDY    64  55  72 SE10      29.82R
JANESVILLE     MOSUNNY   70  57  64 SE10      29.81F
$$

WIZ051-052-058>065-066-070>072-261600-
SOUTHEAST WISCONSIN

CITY           SKY/WX    TMP DP  RH WIND       PRES   REMARKS
MILWAUKEE      PTSUNNY   59  54  83 E6        29.87F
WAUKESHA       SUNNY     63  54  72 SE9       29.87R
MILWAUKEE/TIMM SUNNY     59  50  72 E7        29.88R
RACINE         CLOUDY    57  51  80 E5        29.90R
KENOSHA        SUNNY     60  53  77 E9        29.87S
FOND DU LAC    LGT RAIN  66  53  63 SE8       29.84S
SHEBOYGAN      CLOUDY    59  55  87 E7        29.86S
WEST BEND      CLOUDY    61  54  77 SE7       29.86S
JUNEAU         CLOUDY    63  55  75 E9        29.85S
$$

LSZ147-162-261600-
LAKE SUPERIOR

STATION/POSITION TIME  TEMP    WIND        PRES    WAVE
                       AIR SEA DIR/SP/G            HT/PER
                 (UTC) (F)     (DEG/KT/KT) (MB)    (FT/S)
W MID LAKE BUOY  1450   42 37  170/  4/  6 1009.0R   1
DEVILS ISLAND    1500   49     100/  8/  8 1008.0R
PORT WING        1440   43     360/  2/  4 1007.5S
SAXON HARBOR     1440   49     320/  1/  3 1007.8R
$$

LMZ867-665-643>646-261600-
LAKE MICHIGAN

STATION/POSITION TIME  TEMP    WIND        PRES    WAVE
                       AIR SEA DIR/SP/G            HT/PER
                 (UTC) (F)     (DEG/KT/KT) (MB)    (FT/S)
CHAMBERS ISLAND  1440   56     210/  3/  6 1010.8R
N MID LAKE BUOY  1450   46 43  250/  4/  4 1011.6S   0
NORTHPORT PIER   1440   51     120/  4/  5 1010.8S
SISTER BAY       1251   60        CALM       N/A
KEWAUNEE LAKESHO 1454   51     170/  4/  5 1010.9R
SHEBOYGAN LAKESH 1500   47      80/  6/  6 1011.3S
PORT WASHINGTON  1440   49     120/  3/  4 1012.5S
ATWATER BUOY     1409   47      CALM  /  2 1012.0R
MILWAUKEE LAKESH 1500   50      90/  3/  3   N/A
S MID LAKE BUOY  1450   46 46  180/  2/  6 1012.3R   1/ 4
KENOSHA   LAKESH 1500   51     100/  2/  3 1012.2
$$

TC  - TEMPERATURE IN CELSIUS
VSB - VISIBILITY IN STATUTE MILES
WCI - WIND CHILL INDEX
HX  - HEAT INDEX





USA.gov is the U.S. government's official web portal to all federal, state and local government web resources and services.